Location: Unspecified
(49.8670°N, 0.0000°E)
Time: 05:07:29
(UTC+00:00)

S-56A Canister/Altair - Pass Details

Date: 25 June 2019
Orbit: 633 x 2499 km, 38.9° (Epoch: 21 August)

Event Time Altitude Azimuth Distance (km) Brightness Sun altitude
Rises 13:54:29 0° 215° (SW) 5,703 12.5 55.7°
Reaches altitude 10° 13:59:27 10° 204° (SSW) 4,414 12.1 55.1°
Maximum altitude 14:07:51 24° 157° (SSE) 2,842 10.8 54.0°
Drops below altitude 10° 14:14:14 10° 107° (ESE) 3,274 10.6 53.2°
Sets 14:17:16 0° 93° (E) 3,976 10.9 52.7°
